| time (UTC) | temp F | wind direction | speed knots | gust knots | rain 1hr in | rain 24hr in | rain mn in | humidity % | barometer mb |
| 20260831061003 | 64 | 5 | 0.0 | 1.7 | 0.00 | 0.26 | 0.00 | 72 | 1023.9 |
| 20260831060507 | 64 | 9 | 0.0 | 2.6 | 0.00 | 0.26 | 0.00 | 73 | 1024.0 |
| 20260831060001 | 64 | 5 | 0.9 | 2.6 | 0.00 | 0.26 | 0.00 | 72 | 1023.9 |
| 20260831055509 | 64 | 71 | 0.0 | 2.6 | 0.00 | 0.26 | 0.26 | 72 | 1024.0 |
| 20260831055104 | 64 | 102 | 0.9 | 2.6 | 0.00 | 0.26 | 0.26 | 71 | 1024.0 |
| 20260831054509 | 64 | 125 | 0.9 | 5.2 | 0.00 | 0.26 | 0.26 | 70 | 1024.1 |
| 20260831054103 | 65 | 106 | 1.7 | 6.1 | 0.00 | 0.26 | 0.26 | 69 | 1024.1 |
| 20260831053558 | 65 | 101 | 2.6 | 6.1 | 0.00 | 0.26 | 0.26 | 67 | 1024.0 |
| 20260831053105 | 65 | 49 | 3.5 | 8.7 | 0.00 | 0.26 | 0.26 | 67 | 1023.9 |
| 20260831052557 | 65 | 67 | 4.3 | 9.6 | 0.00 | 0.26 | 0.26 | 67 | 1023.9 |
| 20260831052046 | 65 | 63 | 4.3 | 10.4 | 0.00 | 0.26 | 0.26 | 67 | 1023.9 |
| 20260831051554 | 65 | 47 | 4.3 | 10.4 | 0.00 | 0.26 | 0.26 | 67 | 1023.9 |
| 20260831051103 | 65 | 50 | 5.2 | 10.4 | 0.00 | 0.26 | 0.26 | 68 | 1023.9 |
| 20260831050504 | 66 | 77 | 5.2 | 10.4 | 0.00 | 0.26 | 0.26 | 67 | 1023.9 |
| 20260831050101 | 66 | 87 | 6.1 | 13.0 | 0.00 | 0.26 | 0.26 | 66 | 1023.9 |
| 20260831045504 | 66 | 71 | 5.2 | 15.6 | 0.00 | 0.26 | 0.26 | 67 | 1023.9 |
| 20260831045101 | 66 | 30 | 6.1 | 16.5 | 0.00 | 0.26 | 0.26 | 66 | 1023.8 |
| 20260831044504 | 66 | 47 | 8.7 | 13.9 | 0.00 | 0.26 | 0.26 | 66 | 1023.8 |
| 20260831044101 | 66 | 46 | 6.1 | 13.9 | 0.00 | 0.26 | 0.26 | 67 | 1023.7 |
| 20260831043504 | 66 | 41 | 8.7 | 16.5 | 0.00 | 0.26 | 0.26 | 66 | 1023.8 |
| 20260831043101 | 66 | 69 | 10.4 | 20.0 | 0.00 | 0.26 | 0.26 | 66 | 1023.8 |
| 20260831042503 | 66 | 20 | 11.3 | 16.5 | 0.00 | 0.26 | 0.26 | 67 | 1023.9 |
| 20260831042011 | 66 | 65 | 9.6 | 16.5 | 0.00 | 0.26 | 0.26 | 68 | 1023.9 |
| 20260831041615 | 65 | 63 | 9.6 | 16.5 | 0.00 | 0.26 | 0.26 | 68 | 1024.0 |
| 20260831041008 | 65 | 65 | 9.6 | 15.6 | 0.00 | 0.26 | 0.26 | 71 | 1023.9 |
| 20260831040515 | 65 | 55 | 6.1 | 11.3 | 0.00 | 0.26 | 0.26 | 74 | 1024.0 |
| 20260831040035 | 65 | 80 | 4.3 | 8.7 | 0.00 | 0.26 | 0.26 | 74 | 1024.1 |
| 20260831035530 | 65 | 63 | 3.5 | 7.0 | 0.00 | 0.26 | 0.26 | 74 | 1024.2 |
| 20260831035039 | 65 | 98 | 3.5 | 7.0 | 0.00 | 0.26 | 0.26 | 74 | 1024.3 |
| 20260831034549 | 65 | 86 | 3.5 | 6.1 | 0.00 | 0.26 | 0.26 | 73 | 1024.6 |
| 20260831034055 | 65 | 128 | 1.7 | 5.2 | 0.00 | 0.26 | 0.26 | 73 | 1024.7 |
| 20260831033606 | 65 | 96 | 1.7 | 7.0 | 0.00 | 0.26 | 0.26 | 72 | 1024.6 |
| 20260831033006 | 65 | 86 | 2.6 | 8.7 | 0.00 | 0.26 | 0.26 | 72 | 1024.6 |
| 20260831032604 | 65 | 71 | 4.3 | 8.7 | 0.00 | 0.26 | 0.26 | 71 | 1024.5 |
| 20260831032006 | 65 | 78 | 3.5 | 8.7 | 0.00 | 0.26 | 0.26 | 74 | 1024.3 |
| 20260831031606 | 65 | 70 | 5.2 | 8.7 | 0.00 | 0.26 | 0.26 | 74 | 1024.3 |
| 20260831031054 | 65 | 80 | 4.3 | 9.6 | 0.00 | 0.26 | 0.26 | 73 | 1024.3 |
| 20260831030601 | 65 | 88 | 3.5 | 14.8 | 0.00 | 0.26 | 0.26 | 74 | 1024.2 |
| 20260831030054 | 65 | 62 | 7.0 | 17.4 | 0.00 | 0.26 | 0.26 | 73 | 1024.2 |
| 20260831025542 | 65 | 40 | 9.6 | 17.4 | 0.00 | 0.26 | 0.26 | 73 | 1024.0 |
| 20260831025050 | 65 | 17 | 7.8 | 13.0 | 0.00 | 0.26 | 0.26 | 73 | 1024.0 |
| 20260831024559 | 66 | 23 | 7.8 | 12.2 | 0.00 | 0.26 | 0.26 | 72 | 1023.9 |
| 20260831024001 | 66 | 27 | 2.6 | 9.6 | 0.00 | 0.26 | 0.26 | 73 | 1024.0 |
| 20260831023555 | 67 | 355 | 3.5 | 11.3 | 0.00 | 0.26 | 0.26 | 73 | 1023.8 |
| 20260831023104 | 67 | 346 | 7.8 | 11.3 | 0.00 | 0.26 | 0.26 | 73 | 1023.8 |
| 20260831022556 | 67 | 5 | 3.5 | 7.0 | 0.00 | 0.26 | 0.26 | 73 | 1023.4 |
| 20260831022105 | 67 | 19 | 2.6 | 6.1 | 0.00 | 0.26 | 0.26 | 76 | 1023.4 |
| 20260831021556 | 67 | 11 | 3.5 | 6.1 | 0.00 | 0.26 | 0.26 | 77 | 1023.1 |
| 20260831021105 | 67 | 319 | 2.6 | 5.2 | 0.00 | 0.26 | 0.26 | 79 | 1023.2 |
| 20260831020506 | 67 | 323 | 2.6 | 7.8 | 0.00 | 0.26 | 0.26 | 78 | 1022.8 |
| 20260831015553 | 67 | 326 | 0.0 | 3.5 | 0.00 | 0.26 | 0.26 | 80 | 1022.4 |
| 20260831015045 | 67 | 134 | 0.0 | 4.3 | 0.02 | 0.26 | 0.26 | 76 | 1022.2 |
| 20260831014554 | 67 | 128 | 0.9 | 5.2 | 0.03 | 0.26 | 0.26 | 74 | 1021.9 |
| 20260831014102 | 67 | 161 | 2.6 | 5.2 | 0.03 | 0.26 | 0.26 | 75 | 1021.7 |
| 20260831013505 | 66 | 355 | 0.0 | 1.7 | 0.03 | 0.26 | 0.26 | 73 | 1021.6 |
| 20260831013109 | 66 | 355 | 0.0 | 1.7 | 0.03 | 0.26 | 0.26 | 77 | 1021.7 |
| 20260831012506 | 66 | 355 | 0.0 | 3.5 | 0.03 | 0.26 | 0.26 | 79 | 1021.6 |
| 20260831012103 | 66 | 355 | 0.0 | 3.5 | 0.03 | 0.26 | 0.26 | 79 | 1021.6 |
| 20260831011507 | 66 | 355 | 1.7 | 5.2 | 0.03 | 0.26 | 0.26 | 79 | 1021.5 |
| 20260831011101 | 66 | 360 | 1.7 | 7.0 | 0.03 | 0.26 | 0.26 | 81 | 1021.5 |
| 20260831010557 | 66 | 313 | 2.6 | 13.9 | 0.03 | 0.26 | 0.26 | 79 | 1021.7 |
| 20260831010044 | 66 | 302 | 6.1 | 13.9 | 0.03 | 0.26 | 0.26 | 76 | 1021.7 |
| 20260831005552 | 67 | 302 | 7.8 | 13.9 | 0.03 | 0.26 | 0.26 | 74 | 1021.9 |
| 20260831005100 | 68 | 281 | 3.5 | 11.3 | 0.01 | 0.24 | 0.24 | 78 | 1022.1 |
| 20260831004503 | 67 | 297 | 6.1 | 11.3 | 0.00 | 0.23 | 0.23 | 80 | 1022.1 |
| 20260831004058 | 67 | 319 | 0.9 | 2.6 | 0.00 | 0.23 | 0.23 | 78 | 1021.7 |
| 20260831003501 | 67 | 14 | 0.9 | 4.3 | 0.00 | 0.23 | 0.23 | 79 | 1021.5 |
| 20260831003057 | 67 | 360 | 1.7 | 5.2 | 0.04 | 0.23 | 0.23 | 79 | 1021.5 |
| 20260831002546 | 66 | 24 | 2.6 | 5.2 | 0.14 | 0.23 | 0.23 | 76 | 1021.5 |
| 20260831002054 | 66 | 59 | 2.6 | 5.2 | 0.20 | 0.23 | 0.23 | 79 | 1021.6 |
| 20260831001546 | 66 | 22 | 2.6 | 6.1 | 0.23 | 0.23 | 0.23 | 81 | 1021.6 |
| 20260831001042 | 66 | 26 | 3.5 | 7.0 | 0.23 | 0.23 | 0.23 | 81 | 1021.7 |
| 20260831000547 | 65 | 43 | 2.6 | 7.0 | 0.23 | 0.23 | 0.23 | 82 | 1021.7 |
| 20260831000040 | 65 | 9 | 3.5 | 8.7 | 0.23 | 0.23 | 0.23 | 80 | 1021.7 |
| 20260830235551 | 65 | 21 | 4.3 | 8.7 | 0.23 | 0.23 | 0.23 | 77 | 1021.8 |
| 20260830235057 | 65 | 30 | 5.2 | 9.6 | 0.23 | 0.23 | 0.23 | 80 | 1021.9 |
| 20260830234601 | 65 | 15 | 3.5 | 10.4 | 0.23 | 0.23 | 0.23 | 81 | 1021.9 |
| 20260830234054 | 64 | 355 | 6.1 | 12.2 | 0.23 | 0.23 | 0.23 | 82 | 1022.0 |
| 20260830233601 | 65 | 5 | 9.6 | 14.8 | 0.23 | 0.23 | 0.23 | 79 | 1022.2 |
| 20260830233004 | 66 | 321 | 11.3 | 22.6 | 0.17 | 0.17 | 0.17 | 76 | 1022.7 |
| 20260830232605 | 68 | 319 | 13.0 | 32.2 | 0.09 | 0.09 | 0.09 | 69 | 1022.6 |
| 20260830232005 | 78 | 311 | 20.9 | 29.5 | 0.01 | 0.01 | 0.01 | 47 | 1021.8 |
| 20260830231604 | 84 | 275 | 3.5 | 6.1 | 0.00 | 0.00 | 0.00 | 32 | 1021.8 |
| 20260830231051 | 84 | 229 | 0.9 | 5.2 | 0.00 | 0.00 | 0.00 | 31 | 1021.6 |
| 20260830230600 | 84 | 167 | 2.6 | 6.1 | 0.00 | 0.00 | 0.00 | 31 | 1021.5 |
| 20260830230051 | 85 | 133 | 1.7 | 5.2 | 0.00 | 0.00 | 0.00 | 31 | 1021.3 |
| 20260830225541 | 85 | 182 | 2.6 | 5.2 | 0.00 | 0.00 | 0.00 | 30 | 1021.4 |
| 20260830225049 | 85 | 171 | 0.9 | 7.8 | 0.00 | 0.00 | 0.00 | 30 | 1021.5 |
| 20260830224550 | 86 | 156 | 4.3 | 9.6 | 0.00 | 0.00 | 0.00 | 30 | 1021.5 |
| 20260830224050 | 86 | 148 | 2.6 | 9.6 | 0.00 | 0.00 | 0.00 | 30 | 1021.6 |
| 20260830223559 | 86 | 159 | 3.5 | 8.7 | 0.00 | 0.00 | 0.00 | 30 | 1021.6 |
| 20260830223109 | 86 | 196 | 4.3 | 8.7 | 0.00 | 0.00 | 0.00 | 30 | 1021.7 |
| 20260830222556 | 86 | 178 | 4.3 | 10.4 | 0.00 | 0.00 | 0.00 | 29 | 1021.7 |
| 20260830222106 | 87 | 157 | 5.2 | 12.2 | 0.00 | 0.00 | 0.00 | 29 | 1021.7 |
| 20260830221607 | 88 | 169 | 7.0 | 12.2 | 0.00 | 0.00 | 0.00 | 28 | 1021.8 |
| 20260830221105 | 89 | 170 | 3.5 | 12.2 | 0.00 | 0.00 | 0.00 | 28 | 1021.8 |
| 20260830220507 | 88 | 244 | 0.9 | 7.0 | 0.00 | 0.00 | 0.00 | 28 | 1021.9 |
| 20260830220004 | 88 | 287 | 3.5 | 10.4 | 0.00 | 0.00 | 0.00 | 27 | 1021.9 |
| 20260830215602 | 88 | 134 | 4.3 | 10.4 | 0.00 | 0.00 | 0.00 | 28 | 1022.0 |
| 20260830215106 | 88 | 244 | 5.2 | 13.0 | 0.00 | 0.00 | 0.00 | 28 | 1022.0 |
| 20260830214508 | 88 | 225 | 7.0 | 13.0 | 0.00 | 0.00 | 0.00 | 28 | 1022.0 |
| 20260830214101 | 88 | 186 | 7.0 | 11.3 | 0.00 | 0.00 | 0.00 | 29 | 1022.2 |
| 20260830213504 | 87 | 138 | 6.1 | 11.3 | 0.00 | 0.00 | 0.00 | 30 | 1022.4 |
| 20260830213106 | 87 | 115 | 5.2 | 11.3 | 0.00 | 0.00 | 0.00 | 30 | 1022.5 |
| 20260830212558 | 87 | 136 | 7.0 | 12.2 | 0.00 | 0.00 | 0.00 | 30 | 1022.5 |
| 20260830212041 | 88 | 175 | 6.1 | 10.4 | 0.00 | 0.00 | 0.00 | 30 | 1022.5 |
| 20260830211555 | 87 | 123 | 5.2 | 10.4 | 0.00 | 0.00 | 0.00 | 31 | 1022.6 |
| 20260830211056 | 87 | 159 | 5.2 | 7.8 | 0.00 | 0.00 | 0.00 | 31 | 1022.6 |
| 20260830210607 | 87 | 137 | 2.6 | 9.6 | 0.00 | 0.00 | 0.00 | 31 | 1022.6 |
| 20260830210104 | 87 | 112 | 3.5 | 10.4 | 0.00 | 0.00 | 0.00 | 30 | 1022.9 |
| 20260830205504 | 87 | 174 | 7.0 | 11.3 | 0.00 | 0.00 | 0.00 | 31 | 1022.9 |
| 20260830205059 | 87 | 184 | 2.6 | 9.6 | 0.00 | 0.00 | 0.00 | 32 | 1022.9 |
| 20260830204547 | 87 | 155 | 5.2 | 9.6 | 0.00 | 0.00 | 0.00 | 32 | 1023.1 |
| 20260830204056 | 87 | 169 | 6.1 | 9.6 | 0.00 | 0.00 | 0.00 | 32 | 1023.2 |
| 20260830203548 | 86 | 157 | 2.6 | 9.6 | 0.00 | 0.00 | 0.00 | 32 | 1023.4 |
| 20260830203056 | 86 | 167 | 1.7 | 13.0 | 0.00 | 0.00 | 0.00 | 33 | 1023.5 |
| 20260830202603 | 85 | 178 | 3.5 | 13.0 | 0.00 | 0.00 | 0.00 | 33 | 1023.6 |
| 20260830202007 | 84 | 136 | 1.7 | 8.7 | 0.00 | 0.00 | 0.00 | 34 | 1023.7 |
| 20260830201523 | 84 | 131 | 3.5 | 8.7 | 0.00 | 0.00 | 0.00 | 35 | 1023.8 |
| 20260830201019 | 83 | 180 | 2.6 | 8.7 | 0.00 | 0.00 | 0.00 | 35 | 1023.8 |
| 20260830200527 | 82 | 139 | 2.6 | 8.7 | 0.00 | 0.00 | 0.00 | 36 | 1023.8 |
| 20260830200036 | 82 | 157 | 3.5 | 8.7 | 0.00 | 0.00 | 0.00 | 35 | 1023.8 |
| 20260830195543 | 82 | 149 | 5.2 | 8.7 | 0.00 | 0.00 | 0.00 | 35 | 1023.8 |
| 20260830195051 | 82 | 127 | 4.3 | 8.7 | 0.00 | 0.00 | 0.00 | 36 | 1023.8 |
| 20260830194559 | 83 | 126 | 4.3 | 7.8 | 0.00 | 0.00 | 0.00 | 36 | 1023.9 |
| 20260830194002 | 83 | 150 | 3.5 | 8.7 | 0.00 | 0.00 | 0.00 | 36 | 1024.0 |
| 20260830193559 | 83 | 211 | 2.6 | 8.7 | 0.00 | 0.00 | 0.00 | 36 | 1024.0 |
| 20260830193009 | 83 | 180 | 3.5 | 7.8 | 0.00 | 0.00 | 0.00 | 35 | 1024.1 |
| 20260830192600 | 83 | 167 | 3.5 | 7.8 | 0.00 | 0.00 | 0.00 | 36 | 1024.1 |
| 20260830192053 | 82 | 31 | 1.7 | 7.8 | 0.00 | 0.00 | 0.00 | 37 | 1024.0 |
| 20260830191558 | 82 | 45 | 2.6 | 7.8 | 0.00 | 0.00 | 0.00 | 38 | 1024.1 |
| 20260830191054 | 82 | 47 | 0.9 | 7.0 | 0.00 | 0.00 | 0.00 | 39 | 1024.1 |
| 20260830190559 | 81 | 117 | 0.9 | 7.0 | 0.00 | 0.00 | 0.00 | 38 | 1024.3 |
| 20260830190050 | 81 | 126 | 1.7 | 7.0 | 0.00 | 0.00 | 0.00 | 38 | 1024.3 |
| 20260830185539 | 80 | 118 | 2.6 | 6.1 | 0.00 | 0.00 | 0.00 | 39 | 1024.5 |
| 20260830185046 | 80 | 46 | 1.7 | 6.1 | 0.00 | 0.00 | 0.00 | 41 | 1024.5 |
| 20260830184555 | 80 | 34 | 0.0 | 5.2 | 0.00 | 0.00 | 0.00 | 41 | 1024.6 |
| 20260830184104 | 80 | 90 | 1.7 | 5.2 | 0.00 | 0.00 | 0.00 | 41 | 1024.6 |
| 20260830183555 | 79 | 192 | 0.9 | 6.1 | 0.00 | 0.00 | 0.00 | 41 | 1024.6 |
| 20260830183105 | 79 | 148 | 3.5 | 6.1 | 0.00 | 0.00 | 0.00 | 42 | 1024.6 |
| 20260830182556 | 79 | 141 | 0.9 | 5.2 | 0.00 | 0.00 | 0.00 | 42 | 1024.7 |
| 20260830182104 | 78 | 101 | 1.7 | 5.2 | 0.00 | 0.00 | 0.00 | 43 | 1024.8 |
| 20260830181557 | 78 | 129 | 2.6 | 5.2 | 0.00 | 0.00 | 0.00 | 45 | 1024.8 |
| 20260830181105 | 78 | 157 | 0.9 | 7.8 | 0.00 | 0.00 | 0.00 | 45 | 1024.9 |
| 20260830180504 | 78 | 152 | 0.9 | 7.8 | 0.00 | 0.00 | 0.00 | 45 | 1024.9 |
| 20260830180107 | 78 | 182 | 1.7 | 6.1 | 0.00 | 0.00 | 0.00 | 46 | 1025.1 |
| 20260830175500 | 77 | 115 | 2.6 | 6.1 | 0.00 | 0.00 | 0.00 | 46 | 1025.1 |
| 20260830175058 | 77 | 187 | 2.6 | 6.1 | 0.00 | 0.00 | 0.00 | 46 | 1025.2 |
| 20260830174502 | 77 | 159 | 2.6 | 5.2 | 0.00 | 0.00 | 0.00 | 47 | 1025.2 |
| 20260830174059 | 77 | 166 | 0.0 | 4.3 | 0.00 | 0.00 | 0.00 | 47 | 1025.3 |
| 20260830173551 | 76 | 157 | 2.6 | 6.1 | 0.00 | 0.00 | 0.00 | 47 | 1025.3 |
| 20260830173101 | 76 | 146 | 1.7 | 6.1 | 0.00 | 0.00 | 0.00 | 47 | 1025.4 |
| 20260830172551 | 76 | 107 | 2.6 | 6.1 | 0.00 | 0.00 | 0.00 | 47 | 1025.4 |
| 20260830172044 | 76 | 140 | 1.7 | 5.2 | 0.00 | 0.00 | 0.00 | 47 | 1025.5 |
| 20260830171555 | 76 | 96 | 0.9 | 4.3 | 0.00 | 0.00 | 0.00 | 48 | 1025.5 |
| 20260830171046 | 76 | 150 | 2.6 | 4.3 | 0.00 | 0.00 | 0.00 | 49 | 1025.5 |
| 20260830170533 | 76 | 162 | 2.6 | 5.2 | 0.00 | 0.00 | 0.00 | 49 | 1025.6 |
| 20260830170042 | 75 | 143 | 1.7 | 7.8 | 0.00 | 0.00 | 0.00 | 50 | 1025.6 |
| 20260830165534 | 75 | 136 | 2.6 | 7.0 | 0.00 | 0.00 | 0.00 | 50 | 1025.7 |
| 20260830165045 | 75 | 82 | 2.6 | 5.2 | 0.00 | 0.00 | 0.00 | 50 | 1025.6 |
| 20260830164553 | 75 | 159 | 2.6 | 7.8 | 0.00 | 0.00 | 0.00 | 51 | 1025.6 |
| 20260830164058 | 74 | 180 | 4.3 | 7.8 | 0.00 | 0.00 | 0.00 | 51 | 1025.5 |
| 20260830163504 | 74 | 111 | 3.5 | 7.8 | 0.00 | 0.00 | 0.00 | 53 | 1025.5 |
| 20260830163019 | 74 | 117 | 3.5 | 7.8 | 0.00 | 0.00 | 0.00 | 53 | 1025.4 |
| 20260830162604 | 73 | 130 | 2.6 | 7.8 | 0.00 | 0.00 | 0.00 | 53 | 1025.4 |
| 20260830162007 | 73 | 128 | 2.6 | 7.8 | 0.00 | 0.00 | 0.00 | 54 | 1025.3 |
| 20260830161514 | 72 | 123 | 3.5 | 7.8 | 0.00 | 0.00 | 0.00 | 55 | 1025.3 |
| 20260830161022 | 72 | 112 | 3.5 | 8.7 | 0.00 | 0.00 | 0.00 | 55 | 1025.4 |
| 20260830160530 | 72 | 135 | 4.3 | 8.7 | 0.00 | 0.00 | 0.00 | 55 | 1025.3 |
| 20260830160039 | 71 | 68 | 3.5 | 7.8 | 0.00 | 0.00 | 0.00 | 56 | 1025.2 |
| 20260830155548 | 71 | 108 | 4.3 | 7.8 | 0.00 | 0.00 | 0.00 | 56 | 1025.3 |
| 20260830155057 | 71 | 116 | 3.5 | 9.6 | 0.00 | 0.00 | 0.00 | 57 | 1025.2 |
| 20260830154601 | 71 | 138 | 4.3 | 9.6 | 0.00 | 0.00 | 0.00 | 58 | 1025.2 |
| 20260830154004 | 70 | 114 | 4.3 | 8.7 | 0.00 | 0.00 | 0.00 | 58 | 1025.2 |
| 20260830153601 | 70 | 93 | 5.2 | 8.7 | 0.00 | 0.00 | 0.00 | 58 | 1025.2 |
| 20260830153005 | 70 | 137 | 4.3 | 9.6 | 0.00 | 0.00 | 0.00 | 59 | 1025.2 |
| 20260830152605 | 69 | 104 | 3.5 | 8.7 | 0.00 | 0.00 | 0.00 | 59 | 1025.1 |
| 20260830152054 | 69 | 132 | 5.2 | 9.6 | 0.00 | 0.00 | 0.00 | 59 | 1025.1 |
| 20260830151605 | 69 | 107 | 3.5 | 8.7 | 0.00 | 0.00 | 0.00 | 60 | 1025.1 |
| 20260830151003 | 69 | 128 | 4.3 | 8.7 | 0.00 | 0.00 | 0.00 | 60 | 1025.0 |
| 20260830150511 | 69 | 115 | 4.3 | 8.7 | 0.00 | 0.00 | 0.00 | 60 | 1025.2 |
| 20260830150105 | 69 | 144 | 3.5 | 7.0 | 0.00 | 0.00 | 0.00 | 61 | 1025.2 |
| 20260830145508 | 68 | 111 | 2.6 | 7.0 | 0.00 | 0.00 | 0.00 | 61 | 1025.1 |
| 20260830145104 | 68 | 134 | 3.5 | 8.7 | 0.00 | 0.00 | 0.00 | 61 | 1025.2 |
| 20260830144553 | 68 | 116 | 4.3 | 9.6 | 0.00 | 0.00 | 0.00 | 61 | 1025.0 |
| 20260830144105 | 68 | 85 | 5.2 | 8.7 | 0.00 | 0.00 | 0.00 | 60 | 1025.0 |
| 20260830143558 | 68 | 123 | 4.3 | 7.8 | 0.00 | 0.00 | 0.00 | 60 | 1025.1 |
| 20260830143043 | 68 | 85 | 3.5 | 8.7 | 0.00 | 0.00 | 0.00 | 60 | 1025.0 |
| 20260830142551 | 68 | 90 | 4.3 | 8.7 | 0.00 | 0.00 | 0.00 | 60 | 1024.9 |
| 20260830142045 | 68 | 124 | 6.1 | 8.7 | 0.00 | 0.00 | 0.00 | 61 | 1024.9 |
| 20260830141557 | 67 | 103 | 5.2 | 8.7 | 0.00 | 0.00 | 0.00 | 61 | 1024.8 |
| 20260830141100 | 67 | 78 | 4.3 | 8.7 | 0.00 | 0.00 | 0.00 | 62 | 1024.7 |
| 20260830140503 | 67 | 132 | 2.6 | 8.7 | 0.00 | 0.00 | 0.00 | 62 | 1024.6 |
| 20260830140023 | 66 | 117 | 3.5 | 9.6 | 0.00 | 0.00 | 0.00 | 62 | 1024.7 |
| 20260830135533 | 66 | 115 | 2.6 | 9.6 | 0.00 | 0.00 | 0.00 | 62 | 1024.6 |
| 20260830135039 | 66 | 72 | 4.3 | 9.6 | 0.00 | 0.00 | 0.00 | 63 | 1024.6 |
| 20260830134552 | 65 | 93 | 6.1 | 9.6 | 0.00 | 0.00 | 0.00 | 63 | 1024.6 |
| 20260830134055 | 65 | 82 | 4.3 | 9.6 | 0.00 | 0.00 | 0.00 | 63 | 1024.7 |
| 20260830133602 | 65 | 73 | 5.2 | 9.6 | 0.00 | 0.00 | 0.00 | 63 | 1024.6 |
| 20260830133006 | 65 | 71 | 4.3 | 8.7 | 0.00 | 0.00 | 0.00 | 64 | 1024.6 |
| 20260830132513 | 65 | 86 | 4.3 | 8.7 | 0.00 | 0.00 | 0.00 | 64 | 1024.4 |
| 20260830132022 | 64 | 61 | 4.3 | 8.7 | 0.00 | 0.00 | 0.00 | 64 | 1024.4 |
| 20260830131529 | 64 | 94 | 2.6 | 9.6 | 0.00 | 0.00 | 0.00 | 65 | 1024.4 |
| 20260830131040 | 64 | 80 | 5.2 | 9.6 | 0.00 | 0.00 | 0.00 | 65 | 1024.3 |
| 20260830130544 | 64 | 81 | 5.2 | 8.7 | 0.00 | 0.00 | 0.00 | 65 | 1024.3 |
| 20260830130053 | 64 | 65 | 4.3 | 8.7 | 0.00 | 0.00 | 0.00 | 66 | 1024.2 |
| 20260830125545 | 64 | 78 | 4.3 | 8.7 | 0.00 | 0.00 | 0.00 | 66 | 1024.1 |
| 20260830125053 | 64 | 74 | 4.3 | 7.8 | 0.00 | 0.00 | 0.00 | 66 | 1024.1 |
| 20260830124550 | 64 | 66 | 3.5 | 7.8 | 0.00 | 0.00 | 0.00 | 66 | 1024.2 |
| 20260830124035 | 64 | 86 | 3.5 | 7.8 | 0.00 | 0.00 | 0.00 | 66 | 1024.2 |
| 20260830123545 | 64 | 65 | 2.6 | 8.7 | 0.00 | 0.00 | 0.00 | 66 | 1024.2 |
| 20260830123051 | 64 | 69 | 3.5 | 8.7 | 0.00 | 0.00 | 0.00 | 66 | 1024.0 |
| 20260830122600 | 64 | 85 | 4.3 | 7.8 | 0.00 | 0.00 | 0.00 | 66 | 1024.1 |
| 20260830122051 | 64 | 78 | 2.6 | 8.7 | 0.00 | 0.00 | 0.00 | 66 | 1024.1 |
| 20260830121603 | 64 | 90 | 4.3 | 8.7 | 0.00 | 0.00 | 0.00 | 66 | 1024.0 |
| 20260830121057 | 64 | 91 | 5.2 | 8.7 | 0.00 | 0.00 | 0.00 | 66 | 1023.9 |
| 20260830120600 | 64 | 98 | 4.3 | 8.7 | 0.00 | 0.00 | 0.00 | 66 | 1024.0 |
| 20260830120056 | 64 | 82 | 4.3 | 8.7 | 0.00 | 0.00 | 0.00 | 67 | 1024.0 |
| 20260830115543 | 64 | 91 | 3.5 | 7.8 | 0.00 | 0.00 | 0.00 | 67 | 1023.9 |
| 20260830115051 | 64 | 75 | 3.5 | 7.8 | 0.00 | 0.00 | 0.00 | 67 | 1023.9 |
| 20260830114611 | 64 | 90 | 3.5 | 8.7 | 0.00 | 0.00 | 0.00 | 67 | 1023.9 |
| 20260830114105 | 64 | 82 | 5.2 | 8.7 | 0.00 | 0.00 | 0.00 | 67 | 1024.0 |
| 20260830113600 | 64 | 60 | 2.6 | 6.1 | 0.00 | 0.00 | 0.00 | 66 | 1024.0 |
| 20260830113110 | 64 | 77 | 1.7 | 6.1 | 0.00 | 0.00 | 0.00 | 66 | 1024.0 |
| 20260830112557 | 64 | 96 | 1.7 | 5.2 | 0.00 | 0.00 | 0.00 | 66 | 1024.0 |
| 20260830112002 | 64 | 105 | 2.6 | 7.0 | 0.00 | 0.00 | 0.00 | 66 | 1024.1 |
| 20260830111509 | 64 | 73 | 2.6 | 7.8 | 0.00 | 0.00 | 0.00 | 66 | 1024.1 |
| 20260830111104 | 64 | 90 | 2.6 | 7.8 | 0.00 | 0.00 | 0.00 | 65 | 1024.0 |
| 20260830110507 | 64 | 75 | 4.3 | 6.1 | 0.00 | 0.00 | 0.00 | 65 | 1023.8 |
| 20260830110103 | 64 | 75 | 2.6 | 8.7 | 0.00 | 0.00 | 0.00 | 66 | 1023.9 |
| 20260830105508 | 64 | 61 | 3.5 | 7.8 | 0.00 | 0.00 | 0.00 | 66 | 1024.0 |
| 20260830105103 | 64 | 52 | 2.6 | 6.1 | 0.00 | 0.00 | 0.00 | 66 | 1023.9 |
| 20260830104557 | 64 | 91 | 1.7 | 7.0 | 0.00 | 0.00 | 0.00 | 66 | 1024.0 |
| 20260830104101 | 64 | 72 | 2.6 | 7.0 | 0.00 | 0.00 | 0.00 | 66 | 1024.0 |
| 20260830103555 | 64 | 86 | 3.5 | 7.0 | 0.00 | 0.00 | 0.00 | 66 | 1024.0 |
| 20260830103102 | 64 | 101 | 3.5 | 7.8 | 0.00 | 0.00 | 0.00 | 65 | 1024.1 |
| 20260830102555 | 65 | 119 | 3.5 | 7.8 | 0.00 | 0.00 | 0.00 | 65 | 1024.0 |
| 20260830102045 | 65 | 104 | 3.5 | 8.7 | 0.00 | 0.00 | 0.00 | 65 | 1023.9 |
| 20260830101553 | 65 | 90 | 4.3 | 8.7 | 0.00 | 0.00 | 0.00 | 65 | 1024.0 |
| 20260830101101 | 65 | 82 | 3.5 | 8.7 | 0.00 | 0.00 | 0.00 | 65 | 1024.0 |
| 20260830100503 | 64 | 68 | 3.5 | 9.6 | 0.00 | 0.00 | 0.00 | 65 | 1024.0 |
| 20260830100034 | 64 | 80 | 4.3 | 9.6 | 0.00 | 0.00 | 0.00 | 66 | 1023.9 |
| 20260830095543 | 64 | 62 | 3.5 | 7.0 | 0.00 | 0.00 | 0.00 | 66 | 1024.0 |
| 20260830095052 | 64 | 61 | 3.5 | 8.7 | 0.00 | 0.00 | 0.00 | 66 | 1024.0 |
| 20260830094543 | 64 | 42 | 3.5 | 8.7 | 0.00 | 0.00 | 0.00 | 66 | 1024.1 |
| 20260830094050 | 64 | 53 | 3.5 | 7.8 | 0.00 | 0.00 | 0.00 | 67 | 1024.1 |
| 20260830093558 | 64 | 86 | 3.5 | 7.0 | 0.00 | 0.00 | 0.00 | 68 | 1024.1 |
| 20260830093001 | 63 | 80 | 2.6 | 5.2 | 0.00 | 0.00 | 0.00 | 69 | 1024.1 |
| 20260830092600 | 63 | 64 | 2.6 | 6.1 | 0.00 | 0.00 | 0.00 | 69 | 1024.1 |
| 20260830092006 | 63 | 53 | 2.6 | 5.2 | 0.00 | 0.00 | 0.00 | 69 | 1024.1 |
| 20260830091600 | 64 | 74 | 2.6 | 4.3 | 0.00 | 0.00 | 0.00 | 69 | 1024.1 |
| 20260830091055 | 64 | 80 | 0.9 | 5.2 | 0.00 | 0.00 | 0.00 | 68 | 1024.0 |
| 20260830090601 | 64 | 90 | 2.6 | 4.3 | 0.00 | 0.00 | 0.00 | 68 | 1024.1 |
| 20260830090103 | 64 | 117 | 1.7 | 7.8 | 0.00 | 0.00 | 0.00 | 68 | 1024.0 |
| 20260830085545 | 64 | 109 | 3.5 | 7.8 | 0.00 | 0.00 | 0.00 | 68 | 1024.0 |
| 20260830085050 | 64 | 108 | 4.3 | 6.1 | 0.00 | 0.00 | 0.00 | 68 | 1024.1 |
| 20260830084546 | 64 | 84 | 1.7 | 6.1 | 0.00 | 0.00 | 0.00 | 68 | 1024.2 |
| 20260830084051 | 64 | 63 | 3.5 | 6.1 | 0.00 | 0.00 | 0.00 | 68 | 1024.2 |
| 20260830083559 | 64 | 50 | 2.6 | 7.0 | 0.00 | 0.00 | 0.00 | 69 | 1024.1 |
| 20260830083003 | 64 | 53 | 1.7 | 3.5 | 0.00 | 0.00 | 0.00 | 70 | 1024.2 |
| 20260830082557 | 63 | 65 | 1.7 | 5.2 | 0.00 | 0.00 | 0.00 | 71 | 1024.3 |
| 20260830082044 | 63 | 36 | 2.6 | 5.2 | 0.00 | 0.00 | 0.00 | 71 | 1024.1 |
| 20260830081552 | 63 | 34 | 2.6 | 5.2 | 0.00 | 0.00 | 0.00 | 72 | 1024.2 |
| 20260830081045 | 63 | 28 | 2.6 | 4.3 | 0.00 | 0.00 | 0.00 | 73 | 1024.2 |
| 20260830080553 | 63 | 46 | 2.6 | 5.2 | 0.00 | 0.00 | 0.00 | 73 | 1024.3 |
| 20260830080046 | 63 | 43 | 2.6 | 5.2 | 0.00 | 0.00 | 0.00 | 73 | 1024.3 |
| 20260830075536 | 63 | 26 | 1.7 | 2.6 | 0.00 | 0.00 | 0.00 | 74 | 1024.4 |
| 20260830075043 | 63 | 88 | 0.9 | 1.7 | 0.00 | 0.00 | 0.00 | 74 | 1024.4 |
| 20260830074553 | 64 | 88 | 1.7 | 1.7 | 0.00 | 0.00 | 0.00 | 72 | 1024.5 |
| 20260830074100 | 64 | 88 | 0.0 | 0.9 | 0.00 | 0.00 | 0.00 | 72 | 1024.6 |
| 20260830073554 | 64 | 88 | 0.0 | 1.7 | 0.00 | 0.00 | 0.00 | 71 | 1024.8 |
| 20260830073108 | 64 | 88 | 0.0 | 1.7 | 0.00 | 0.00 | 0.00 | 71 | 1024.7 |
| 20260830072550 | 64 | 88 | 0.0 | 1.7 | 0.00 | 0.00 | 0.00 | 71 | 1024.7 |
| 20260830072057 | 64 | 88 | 0.0 | 2.6 | 0.00 | 0.00 | 0.00 | 71 | 1024.7 |
| 20260830071605 | 64 | 88 | 0.9 | 2.6 | 0.00 | 0.00 | 0.00 | 71 | 1024.6 |
| 20260830071055 | 64 | 70 | 0.9 | 2.6 | 0.00 | 0.00 | 0.00 | 70 | 1024.5 |
| 20260830070602 | 64 | 92 | 0.9 | 3.5 | 0.00 | 0.00 | 0.00 | 70 | 1024.4 |
| 20260830070056 | 65 | 110 | 1.7 | 3.5 | 0.00 | 0.00 | 0.00 | 70 | 1024.4 |
| 20260830065603 | 65 | 110 | 1.7 | 3.5 | 0.00 | 0.00 | 0.00 | 70 | 1024.4 |
| 20260830065056 | 65 | 102 | 1.7 | 3.5 | 0.00 | 0.00 | 0.00 | 70 | 1024.4 |
| 20260830064546 | 65 | 94 | 0.9 | 5.2 | 0.00 | 0.00 | 0.00 | 70 | 1024.4 |
| 20260830064054 | 65 | 124 | 1.7 | 3.5 | 0.00 | 0.00 | 0.00 | 70 | 1024.4 |
| 20260830063602 | 65 | 129 | 0.9 | 3.5 | 0.00 | 0.00 | 0.00 | 70 | 1024.4 |
| 20260830063005 | 65 | 88 | 1.7 | 2.6 | 0.00 | 0.00 | 0.00 | 71 | 1024.4 |
| 20260830062600 | 65 | 111 | 0.9 | 2.6 | 0.00 | 0.00 | 0.00 | 70 | 1024.4 |
| 20260830062002 | 65 | 105 | 0.9 | 3.5 | 0.00 | 0.00 | 0.00 | 70 | 1024.4 |
| 20260830061600 | 65 | 117 | 1.7 | 6.1 | 0.00 | 0.00 | 0.00 | 70 | 1024.4 |